Location: Caltech
(34.1382°N, 118.1253°W)
Time: 04:46:45
(UTC-07:00)

Iridium 95 - Visible Passes

Search period start: 22 August 2014 00:00
Search period end: 01 September 2014 00:00
Orbit: 776 x 779 km, 86.4° (Epoch: 21 August)

Date Brightness Start Highest point End Pass type
(mag) Time Alt. Az. Time Alt. Az. Time Alt. Az.
22 Aug 7.3 03:05:41 25° N 03:05:41 25° N 03:07:46 10° N visible
23 Aug 7.7 02:32:29 21° NNE 02:32:29 21° NNE 02:34:13 10° N visible
24 Aug 8.2 01:59:15 15° NNE 01:59:15 15° NNE 02:00:15 10° NNE visible
24 Aug 7.8 03:39:44 13° NW 03:39:44 13° NW 03:40:33 10° NNW visible
25 Aug 7.8 03:06:30 17° NNW 03:06:30 17° NNW 03:07:43 10° NNW visible
26 Aug 8.0 02:33:16 17° N 02:33:16 17° N 02:34:23 10° N visible
27 Aug 8.3 02:00:01 14° NNE 02:00:01 14° NNE 02:00:41 10° NNE visible
28 Aug 8.1 03:07:15 11° NNW 03:07:15 11° NNW 03:07:29 10° NNW visible
29 Aug 8.2 02:33:59 12° N 02:33:59 12° N 02:34:25 10° N visible
30 Aug 8.4 02:00:42 11° N 02:00:42 11° N 02:00:57 10° N visible
